Location: Colonia Mina de C?rbuni
(46.1667°N, 22.7167°E)
Time: 12:45:56
(UTC+00:00)

deb Explorer IX - Pass Details

Date: 20 April 2024
Orbit: 512 x 891 km, 38.7° (Epoch: 23 May)

Event Time Altitude Azimuth Distance (km) Brightness Sun altitude
Rises 10:31:51 0° 242° (WSW) 3,422 ? 55.6°
Reaches altitude 10° 10:34:30 10° 234° (SW) 2,523 ? 55.6°
Maximum altitude 10:40:04 38° 169° (SSE) 1,342 ? 55.5°
Drops below altitude 10° 10:45:45 10° 103° (ESE) 2,572 ? 55.4°
Sets 10:48:29 0° 96° (E) 3,496 ? 55.3°
